Home > Time Zones > World Clock > Weather > Iran > Kerman > Past weeks

Flag for Iran Weather past 2 weeks in Kerman, Iran

Now
32 °F

Partly sunny.


Feels Like: 27 °F
Forecast: 22 / 60 °F
Wind: 5 mph from Southwest

Location: Kerman Airport

Current Time: Dec 18, 2014 at 7:58:18 AM

Latest Report: Dec 18, 2014 at 7:20 AM


Visibility: N/A

Pressure: 30.33 "Hg

Humidity: 93%

Dew point: 30 °F

Location of KermanLocation

Historic Weather in Kerman — Graph

°F

Kerman temperature yesterday

Maximum temperature yesterday: 59 °F (at 12:30 PM)
Minimum temperature yesterday: 36 °F (at 4:30 AM)
Average temperature yesterday: 45 °F

Past Weeks' High & Low Weather Summary

 TemperatureHumidityPressure
High72 °F (Dec 15, 12:30 PM)100% (Dec 18, 2:30 AM)30.48 "Hg (Dec 18, 2:30 AM)
Low18 °F (Dec 16, 7:00 AM)0% (Dec 15, 4:30 PM)30.12 "Hg (Dec 11, 3:00 PM)
Average45 °F32%30.31 "Hg
* Reported Dec 3 6:30 AM — Dec 18 6:30 AM, Kerman, Weather by CustomWeather, © 2014

Note: Actual official high and low records may vary slightly from our data, if they occured in-between our weather recording intervals... More about our weather records

Advertising

Kerman weather history for previous 24 hours

 ConditionsComfort  
Time TempWeatherWind HumidityBarometerVisibility
6:30 AM
Dec 18
30 °FMostly cloudy.No wind86%30.30 "HgN/A
5:30 AM28 °FPassing clouds.5 mph93%30.27 "HgN/A
3:30 AM30 °FPassing clouds.5 mph100%30.27 "HgN/A
2:30 AM30 °FPassing clouds.5 mph100%30.27 "HgN/A
1:30 AM32 °FPassing clouds.5 mph93%30.27 "HgN/A
12:30 AM34 °FPassing clouds.5 mph87%30.27 "HgN/A
11:30 PM
Dec 17
36 °FPassing clouds.12 mph93%30.27 "HgN/A
10:30 PM37 °FPassing clouds.14 mph81%30.27 "HgN/A
9:30 PM39 °FPassing clouds.14 mph81%30.27 "HgN/A
8:30 PM43 °FPassing clouds.7 mph87%30.27 "HgN/A
7:30 PM45 °FPartly cloudy.5 mph87%30.24 "HgN/A
6:30 PM45 °FLight rain. Partly cloudy.9 mph87%30.24 "Hg5 mi
5:30 PM45 °FPartly cloudy.12 mph81%30.27 "HgN/A
4:30 PM50 °FRain showers. Broken clouds.7 mph58%30.24 "Hg2 mi
3:30 PM52 °FBroken clouds.18 mph47%30.21 "HgN/A
2:30 PM57 °FBroken clouds.12 mph33%30.18 "Hg2 mi
1:30 PM59 °FBroken clouds.12 mph12%30.18 "HgN/A
12:30 PM59 °FScattered clouds.7 mph8%30.18 "HgN/A
11:30 AM57 °FScattered clouds.5 mph8%30.24 "HgN/A
10:30 AM55 °FPassing clouds.7 mph7%30.27 "HgN/A
9:30 AM54 °FPassing clouds.No wind6%30.30 "HgN/A
8:30 AM45 °FPartly sunny.No wind11%30.30 "HgN/A
7:30 AM37 °FScattered clouds.5 mph14%30.27 "HgN/A
Weather by CustomWeather, © 2014

See weather overviewHow to use our weather pages